User: anonymous   Login
Location: Unspecified
(48.8656°N, 0.0000°E)
Time: 17:18:28
(UTC+00:00)
Language:

A-11 Canister half - Orbit

View from above orbital plane
View from above orbital plane
View from above satellite
View from above satellite

Ground track
Ground track

The orbit data is extracted from the following two-line orbital elements,

1    53U 60009E   19167.52860976 -.00000012 +00000-0 +72419-3 0  9990
2    53 047.2771 310.5042 0099206 077.7435 283.4443 12.17228761623873
Epoch (UTC): 16 June 2019 12:41:11
Eccentricity: 0.0099206
inclination: 47.2771°
perigee height: 1525 km
apogee height: 1684 km
right ascension of ascending node: 310.5042°
argument of perigee: 77.7435°
revolutions per day: 12.17228761
mean anomaly at epoch: 283.4443°
orbit number at epoch: 62387

The dashed part of the orbit path shows where the satellite is in the earth's shadow,  

DLR